FW7881 Weather Reports


time (UTC)temp
C
wind
direction
speed
KPH
gust
KPH
rain 1hr
cm
rain 24hr
cm
rain mn
cm
humidity
%
barometer
mb
20260504090116 12 169 0.0 6.4 0.00 0.00 0.00 53 997.0
20260504081546 11 0 0.0 1.6 0.00 0.00 0.00 51 998.1
20260504044559 12 0 0.0 0.0 0.00 0.00 0.00 50 1001.9
20260504043047 12 0 0.0 0.0 0.00 0.00 0.00 50 1002.2
20260504041553 13 0 0.0 0.0 0.00 0.00 0.00 50 1002.4
20260504040052 13 0 0.0 0.0 0.00 0.00 0.00 49 1002.8
20260504034554 13 0 0.0 0.0 0.00 0.00 0.00 49 1003.0
20260504033054 13 0 0.0 0.0 0.00 0.00 0.00 49 1003.3
20260504031548 13 0 0.0 0.0 0.00 0.00 0.00 48 1003.5
20260504030048 13 0 0.0 0.0 0.00 0.00 0.00 45 1003.5
20260504024550 14 0 0.0 0.0 0.00 0.00 0.00 43 1003.6
20260504023042 15 0 0.0 0.0 0.00 0.00 0.00 40 1003.7
20260504021549 16 0 0.0 0.0 0.00 0.00 0.00 36 1003.9
20260504020040 16 0 0.0 0.0 0.00 0.00 0.00 35 1003.8
20260504014550 16 0 0.0 0.0 0.00 0.00 0.00 35 1003.9
20260504013052 17 0 0.0 0.0 0.00 0.00 0.00 32 1004.0
20260504011550 18 0 0.0 0.0 0.00 0.00 0.00 30 1004.0
20260504010056 18 0 0.0 9.7 0.00 0.00 0.00 29 1004.0
20260504004550 19 0 0.0 6.4 0.00 0.00 0.00 28 1004.2
20260504003047 20 293 0.0 3.2 0.00 0.00 0.00 27 1004.1
20260504001605 20 282 1.6 9.7 0.00 0.00 0.00 26 1004.3
20260504000048 20 250 0.0 9.7 0.00 0.00 0.00 27 1004.3
20260503234540 21 0 0.0 8.0 0.00 0.00 0.00 27 1004.3
20260503233050 20 0 0.0 9.7 0.00 0.00 0.00 27 1004.3
20260503231547 20 0 0.0 8.0 0.00 0.00 0.00 26 1004.7
20260503230047 21 0 0.0 12.9 0.00 0.00 0.00 26 1004.8
20260503224550 20 0 1.6 12.9 0.00 0.00 0.00 27 1004.8
20260503223049 20 0 1.6 11.3 0.00 0.00 0.00 27 1004.9
20260503221547 20 271 1.6 17.7 0.00 0.00 0.00 26 1005.0
20260503220106 20 273 1.6 12.9 0.00 0.00 0.00 27 1005.0
20260503214550 20 0 1.6 11.3 0.00 0.00 0.00 25 1005.1
20260503213049 20 0 4.8 16.1 0.00 0.00 0.00 26 1005.1
20260503211605 20 0 1.6 22.5 0.00 0.00 0.00 27 1005.3
20260503210055 20 0 0.0 8.0 0.00 0.00 0.00 30 1005.3
20260503204554 20 0 0.0 14.5 0.00 0.00 0.00 29 1005.4
20260503203049 20 244 1.6 16.1 0.00 0.00 0.00 31 1005.4
20260503201559 20 266 0.0 14.5 0.00 0.00 0.00 31 1005.6
20260503200044 20 0 1.6 16.1 0.00 0.00 0.00 31 1005.8
20260503194551 20 271 1.6 16.1 0.00 0.00 0.00 29 1006.1
20260503193054 20 283 4.8 14.5 0.00 0.00 0.00 29 1006.1
20260503191551 20 299 4.8 17.7 0.00 0.00 0.00 28 1006.3
20260503190049 20 349 1.6 22.5 0.00 0.00 0.00 30 1006.2
20260503184545 20 249 4.8 20.9 0.00 0.00 0.00 31 1006.2
20260503183050 19 237 3.2 17.7 0.00 0.00 0.00 34 1006.4
20260503181617 19 0 1.6 17.7 0.00 0.00 0.00 37 1006.4
20260503180054 20 356 1.6 17.7 0.00 0.00 0.00 36 1006.5
20260503174556 19 308 0.0 20.9 0.00 0.00 0.00 36 1006.5
20260503173056 19 0 4.8 17.7 0.00 0.00 0.00 39 1006.6
20260503171549 19 0 1.6 11.3 0.00 0.00 0.00 38 1006.6